Location: Caixon
(43.4106°N, 0.0273°E)
Time: 22:31:00
(UTC+00:00)

Lacrosse 5 rocket - Pass Details

Date: 16 October 2021
Orbit: 458 x 633 km, 57.0° (Epoch: 07 December)

Event Time Altitude Azimuth Distance (km) Brightness Sun altitude
Exits shadow 04:02:23 19° 161° (SSE) 1,342 3.3 -24.8°
Maximum altitude 04:04:08 26° 124° (SE) 1,145 3.3 -24.5°
Drops below altitude 10° 04:07:43 10° 69° (ENE) 1,913 5.1 -23.8°
Sets 04:10:20 0° 56° (ENE) 2,848 6.1 -23.4°
